DW8782 Weather Reports


time (UTC)temp
C
wind
direction
speed
KPH
gust
KPH
rain 1hr
cm
rain 24hr
cm
rain mn
cm
humidity
%
barometer
mb
20260503181603 26 66 0.0 4.8 0.00 0.00 0.00 38 1013.3
20260503180048 25 151 0.0 4.8 0.00 0.00 0.00 44 1013.5
20260503174542 24 79 0.0 4.8 0.00 0.00 0.00 45 1013.6
20260503173051 23 80 1.6 8.0 0.00 0.00 0.00 45 1013.9
20260503171538 22 94 0.0 4.8 0.00 0.00 0.00 49 1014.0
20260503081529 12 75 1.6 1.6 0.00 0.00 0.00 74 1015.7
20260503071518 13 88 0.0 0.0 0.00 0.00 0.00 71 1015.5
20260503054508 15 99 0.0 1.6 0.00 0.00 0.00 68 1015.0
20260503053004 16 99 0.0 1.6 0.00 0.00 0.00 69 1014.7
20260503051600 16 99 0.0 3.2 0.00 0.00 0.00 69 1014.7
20260503044609 15 225 0.0 1.6 0.00 0.00 0.00 77 1014.4
20260503043105 15 229 0.0 1.6 0.00 0.00 0.00 78 1014.1
20260503041556 15 229 0.0 1.6 0.00 0.00 0.00 80 1014.1
20260503040055 15 229 0.0 0.0 0.00 0.00 0.00 79 1013.8
20260503034551 15 229 0.0 1.6 0.00 0.00 0.00 78 1013.6
20260503033103 15 229 0.0 0.0 0.00 0.00 0.00 78 1013.3
20260503031547 15 229 0.0 0.0 0.00 0.00 0.00 76 1013.0
20260503030046 16 229 0.0 1.6 0.00 0.00 0.00 74 1012.9
20260503024543 16 229 0.0 0.0 0.00 0.00 0.00 72 1012.6
20260503023052 17 229 0.0 1.6 0.00 0.00 0.00 70 1012.5
20260503021541 18 235 0.0 3.2 0.00 0.00 0.00 65 1012.5
20260503020038 18 238 0.0 3.2 0.00 0.00 0.00 63 1012.6
20260503014535 19 222 4.8 8.0 0.00 0.00 0.00 61 1012.8
20260503013033 20 234 1.6 8.0 0.00 0.00 0.00 60 1012.8
20260503011533 20 78 1.6 9.7 0.00 0.00 0.00 58 1012.8
20260503010032 21 104 1.6 11.3 0.00 0.00 0.00 56 1012.9
20260503004525 21 222 1.6 6.4 0.00 0.00 0.00 56 1012.9
20260503003023 22 359 3.2 6.4 0.00 0.00 0.00 55 1012.9
20260503001521 22 205 3.2 17.7 0.00 0.00 0.00 52 1013.0
20260503000023 22 250 1.6 11.3 0.00 0.00 0.00 53 1013.1
20260502234515 22 232 3.2 11.3 0.00 0.00 0.00 51 1013.2
20260502233012 22 227 4.8 12.9 0.00 0.00 0.00 52 1013.3
20260502231511 21 51 3.2 11.3 0.00 0.00 0.00 56 1013.5
20260502230006 21 80 1.6 14.5 0.00 0.00 0.00 56 1013.8
20260502224603 22 47 4.8 14.5 0.00 0.00 0.00 53 1013.7
20260502223100 22 249 9.7 24.1 0.00 0.00 0.00 50 1014.0
20260502221556 22 222 11.3 20.9 0.00 0.00 0.00 51 1014.1
20260502220054 21 121 8.0 22.5 0.00 0.00 0.00 52 1014.2
20260502214552 21 262 9.7 24.1 0.00 0.00 0.00 53 1014.5
20260502213047 21 179 4.8 17.7 0.00 0.00 0.00 54 1014.7
20260502211552 20 201 3.2 16.1 0.00 0.00 0.00 57 1015.0
20260502210040 21 229 4.8 17.7 0.00 0.00 0.00 55 1015.1
20260502204538 22 241 3.2 19.3 0.00 0.00 0.00 52 1015.1
20260502203035 21 234 4.8 12.9 0.00 0.00 0.00 53 1015.3
20260502201632 21 261 4.8 12.9 0.00 0.00 0.00 53 1015.4
20260502200038 21 219 4.8 11.3 0.00 0.00 0.00 51 1015.7
20260502194525 23 231 6.4 14.5 0.00 0.00 0.00 46 1015.8
20260502193022 27 208 6.4 11.3 0.00 0.00 0.00 35 1016.0
20260502191521 28 306 0.0 3.2 0.00 0.00 0.00 33 1016.2
20260502190012 27 140 0.0 1.6 0.00 0.00 0.00 37 1016.3
20260502184515 27 77 0.0 4.8 0.00 0.00 0.00 37 1016.2
20260502183003 26 115 1.6 4.8 0.00 0.00 0.00 33 1016.3